[Iaude] MPEC J212: 2024 JD6 [a=2.77,e=0.83,i=19.1,H=20.3]
    mpec at cfa.harvard.edu 
    mpec at cfa.harvard.edu
       
    Wed May  8 22:56:21 EDT 2024
    
    
  
M.P.E.C. 2024-J212                                  Issued 2024 May 9, 02:54 UT
     The Minor Planet Electronic Circulars contain information on unusual
         minor planets, routine data on comets and natural satellites,
         and occasional editorial announcements.  They are published
    on behalf of Division F of the International Astronomical Union by the
          Minor Planet Center, Smithsonian Astrophysical Observatory,
                          Cambridge, MA 02138, U.S.A.
			  
             Prepared using the Tamkin Foundation Computer Network
                              MPC at CFA.HARVARD.EDU
            URL https://www.minorplanetcenter.net/    ISSN 1523-6714
                                    2024 JD6                                    
Observations:
     K24J06D*1C2024 05 06.20384912 35 31.844+55 33 40.93         20.92GVEJ212G96
     K24J06D 1C2024 05 06.20909612 35 33.162+55 33 12.56         20.74GVEJ212G96
     K24J06D 1C2024 05 06.21434612 35 34.436+55 32 43.80         20.93GVEJ212G96
     K24J06D 1C2024 05 06.21959812 35 35.657+55 32 15.14         20.67GVEJ212G96
     K24J06D KC2024 05 06.30200912 35 55.468+55 24 45.07         20.92GVEJ212I52
     K24J06D KC2024 05 06.30481612 35 56.123+55 24 30.10         20.81GVEJ212I52
     K24J06D KC2024 05 06.30761612 35 56.814+55 24 14.40         20.63GVEJ212I52
     K24J06D KC2024 05 06.30952212 35 57.300+55 24 04.00         20.89GVEJ212I52
     K24J06D KC2024 05 07.10027412 39 07.57 +54 13 30.9          20.8 GVEJ212H21
     K24J06D KC2024 05 07.10447412 39 08.49 +54 13 08.7          21.3 GVEJ212H21
     K24J06D KC2024 05 07.10727312 39 09.13 +54 12 53.9          21.0 GVEJ212H21
     K24J06D KC2024 05 07.11007112 39 09.72 +54 12 39.1          21.7 GVEJ212H21
     K24J06D mC2024 05 07.13452612 39 15.703+54 10 31.73         21.70GVEJ212I52
     K24J06D mC2024 05 07.13529712 39 15.880+54 10 26.44         21.26GVEJ212I52
     K24J06D mC2024 05 07.13606912 39 16.078+54 10 22.76         20.98GVEJ212I52
     K24J06D mC2024 05 07.13684012 39 16.135+54 10 18.91         22.31GVEJ212I52
     K24J06D  C2024 05 07.23350612 39 37.056+54 01 50.52         20.9 GVEJ212H01
     K24J06D  C2024 05 07.23917412 39 38.280+54 01 20.79         20.9 GVEJ212H01
     K24J06D  C2024 05 07.24824212 39 40.228+54 00 32.85         21.0 GVEJ212H01
     K24J06D  C2024 05 07.25489812 39 41.673+53 59 57.74         20.7 GVEJ212H01
     K24J06D KC2024 05 08.07936812 42 40.95 +52 48 48.6          20.9 GVEJ212H21
     K24J06D KC2024 05 08.08776912 42 42.58 +52 48 05.9          20.9 GVEJ212H21
     K24J06D KC2024 05 08.09336912 42 43.70 +52 47 37.5          20.8 GVEJ212H21
     K24J06D 1C2024 05 08.88488 12 45 20.84 +51 41 14.0          21.4 VXEJ212033
     K24J06D 1C2024 05 08.88740 12 45 21.27 +51 41 02.2          21.1 VXEJ212033
     K24J06D 1C2024 05 08.88992 12 45 21.73 +51 40 49.6          21.3 VXEJ212033
     K24J06D 1C2024 05 08.89243 12 45 22.20 +51 40 37.1          21.2 VXEJ212033
     K24J06D 1C2024 05 08.90024 12 45 23.65 +51 39 58.4          21.3 VXEJ212033
Observer details:
033 Karl Schwarzschild Observatory, Tautenburg.  Observers S. Melnikov, C.
    Hogner, F. Ludwig, M. Hartmann, B. Stecklum.  Measurer B. Stecklum.
    1.34-m f/3 Schmidt + CCD.
G96 Mt. Lemmon Survey.  Observer G. J. Leonard.  Measurers T. Beuden, V. F.
    Carvajal, D. Fay, J. B. Fazekas, D. C. Fuls, A. R. Gibbs, A. D. Grauer, H.
    Groeller, J. K. Hogan, R. A. Kowalski, S. M. Larson, G. J. Leonard, D.
    Rankin, R. L. Seaman, F. C. Shelly, K. W. Wierzchos.  1.5-m reflector +
    10K CCD.
H01 Magdalena Ridge Observatory, Socorro.  Observers W. H. Ryan, E. V. Ryan.
    Measurer W. H. Ryan.  2.4-m f/8.9 Ritchey-Chretien + CCD.
H21 Astronomical Research Observatory, Westfield.  Observer R. Holmes.
    Measurers T. Linder, R. Holmes, L. Horn.  0.76-m f/3.0 astrograph + CCD.
I52 Steward Observatory, Mt. Lemmon Station.  Observers R. A. Kowalski, H.
    Groeller.  Measurers T. Beuden, V. F. Carvajal, D. Fay, J. B. Fazekas, D.
    C. Fuls, A. R. Gibbs, A. D. Grauer, H. Groeller, J. K. Hogan, R. A.
    Kowalski, S. M. Larson, G. J. Leonard, D. Rankin, R. L. Seaman, F. C.
    Shelly, K. W. Wierzchos.  1.0-m prime focus + CCD.
Orbital elements:
2024 JD6                                                 Earth MOID = 0.2589 AU
Epoch 2024 Mar. 31.0 TT = JDT 2460400.5                 Veres                   
M   4.70074              (2000.0)            P               Q                  
n   0.21400194     Peri.  330.84433     -0.23117129     -0.94142632             
a   2.7681582      Node   131.34028     +0.94395194     -0.27814345             
e   0.8274837      Incl.   19.08685     +0.23561528     +0.19066385             
P   4.61           H   20.39          G   0.15           U   9                  
Residuals in seconds of arc
240506 G96  0.2-  0.0     240507 H21  0.1+  0.0     240508 H21  0.3+  0.1+
240506 G96  0.3+  0.2+    240507 H21  0.1-  0.1-    240508 H21  0.0   0.1+
240506 G96  0.3+  0.0     240507 I52  0.2-  0.6+    240508 H21  0.0   0.1+
240506 G96  0.0   0.0     240507 I52  0.2-  0.7-    240508 033  0.1+  1.1-
240506 I52  0.1+  0.1-    240507 I52  0.1+  0.3-    240508 033  0.2-  0.4-
240506 I52  0.1-  0.3+    240507 I52  0.9-  0.1-    240508 033  0.3-  0.5-
240506 I52  0.0   0.1-    240507 H01  0.2-  0.1-    240508 033  0.2-  0.5-
240506 I52  0.3+  0.1-    240507 H01  0.2-  0.0     240508 033  0.2-  0.4-
240507 H21  0.1-  0.2+    240507 H01  0.3-  0.1-
240507 H21  0.1-  0.1+    240507 H01  0.2-  0.1-
Ephemeris:
2024 JD6                 a,e,i = 2.77, 0.83, 19                  q = 0.4776
Date    TT    R. A. (2000) Decl.     Delta      r    Elong.  Phase     V
2024 04 09    02 48 33.9 +52 53 43   0.3804  0.8079    49.5   109.5    22.0
...
2024 04 24    09 54 06.0 +76 14 09   0.3820  1.0353    83.6    74.9    21.0
...
2024 05 02    12 12 16.9 +62 22 32   0.4483  1.1534    97.2    60.1    21.1
...
2024 05 08    12 42 23.6 +52 55 35   0.5170  1.2398   103.9    52.2    21.3
2024 05 09    12 45 42.8 +51 31 49   0.5296  1.2540   104.8    51.1    21.4
2024 05 10    12 48 44.4 +50 10 59   0.5426  1.2682   105.6    50.1    21.4
...
2024 05 16    13 02 44.0 +43 01 45   0.6259  1.3518   109.1    45.0    21.7
...
2024 05 24    13 15 27.0 +35 28 58   0.7491  1.4601   111.1    40.3    22.2
...
2024 06 08    13 32 56.0 +25 15 37   1.0087  1.6537   109.6    35.3    23.0
M. P. C. Staff               (C) Copyright 2024 MPC           M.P.E.C. 2024-J212
    
    
More information about the Iaude
mailing list